Simultaneous Nadir Overpasses (SNOs) Predictions

Prediction of SNOs between AQUA and NOAA-19 Satellite Orbit:

Table of predicted SNOs for the next 14.0 days since TLE Epoch: 7/26/2019
Index Date (AQUA) Time (AQUA) Lat,Lon (AQUA) SZA (AQUA ) Date (NOAA-19) Time (NOAA-19) Lat,Lon (NOAA-19) SZA (NOAA-19 ) Distance(km) Time Diff (sec)
1 07/29/2019 00:24:39 80.32, 140.45 63.29 07/29/2019 00:24:10 80.33, 140.41 63.31 1.21 29
2 07/29/2019 01:14:06 -80.34, -52.06 116.68 07/29/2019 01:15:09 -80.35, -52.01 116.70 1.53 63
3 07/31/2019 05:58:23 -80.33,-123.05 116.18 07/31/2019 05:57:34 -80.32,-123.07 116.16 1.28 49
4 07/31/2019 06:47:50 80.34, 44.47 63.86 07/31/2019 06:48:34 80.35, 44.63 63.83 3.08 44
5 08/02/2019 11:32:06 80.30, -26.22 64.33 08/02/2019 11:30:59 80.32, -26.27 64.38 2.48 67
6 08/02/2019 12:21:33 -80.32, 141.26 115.63 08/02/2019 12:21:57 -80.34, 141.29 115.63 2.33 24
7 08/04/2019 17:55:17 80.33,-122.24 64.96 08/04/2019 17:55:23 80.34,-122.10 64.95 2.73 6
8 08/06/2019 23:29:00 -80.31, -25.49 114.48 08/06/2019 23:28:45 -80.33, -25.48 114.46 2.11 15
9 08/09/2019 05:02:44 80.32, 70.99 66.16 08/09/2019 05:02:12 80.32, 71.08 66.17 1.60 32




NCC Satellite Simultaneous Nadir Overpasses (SNOs) Prediction Service
